sat.trackr.live / text

‹ back to catalog

STARLINK-30891

NORAD 58367 · 2023-177S

PAYLOAD ACTIVE UNKNOWN

§ Identity

Operator
Country
US
Launch date
2023-11-18
Launch site
AFETR
Launch vehicle
Mass (kg)
RCS (m²)

Purposes: comms

External: N2YO · Heavens-Above · Gunter

§ Orbital elements

Epoch: 2026-05-24T19:01:02.130528Z

Period
94.27 min
Inclination
42.9997°
Eccentricity
0.0001139
Mean motion
15.27576090 rev/d
Perigee alt
482.3 km
Apogee alt
483.8 km
Semi-major
6,861.2 km
B*
3.4971e-5
RAAN
281.0490°
Arg perigee
266.2102°
Mean anomaly
93.8619°
Rev number
13,980

§ Raw data

STARLINK-308911 58367U 23177S   26144.79238577  .00000700  00000+0  34971-4 0  99982 58367  42.9997 281.0490 0001139 266.2102  93.8619 15.27576090139807

JSON: /api/v1/satellites/58367 · /tle

For live sub-satellite position, see the globe view (requires WebGL).

§ Visibility from observer

Set your observer location to see the next 7 days of passes ≥ 10°. The values pass through the URL so the page stays shareable.

No JS? Fill the form by hand. The geolocation button needs JavaScript.